Back to Top

Language: 

My Weather Underground Personal Weather Station Historical Data with Graphs...

Delerius Weather Station Historical Data
Daily Summary for February 13, 2017 Units:  Metric    English   Both
« Previous Day
Next Day »
Daily Weekly Monthly Yearly Custom
  High: Low: Average:
Temperature: 7.2 °C 2.9 °C 4.1 °C
Dew Point: 5.2 °C 2 °C 3.1 °C
Humidity: 97 % 86 % 93 %
Wind Speed: 14.5 km/h 4.8 km/h 9 km/h
Wind Gust: 32.2 km/h - -
Wind:- - ENE
Pressure: 1028.7 hPa 1025.3 hPa -
Precipitation: 0 mm    
Historical Graphs
 
 
Tabular Data for February 13, 2017
Time Temperature Dew Point Pressure Wind Wind Speed Wind Gust Humidity Rainfall Rate (Hourly) solar Conditions
00:05 3.2 °C 2.5 °C 1028.3 hPa ENE 11.3 km/h 12.9 km/h 95 % 0 mm 0 W/m2
00:15 3.2 °C 2.5 °C 1028.3 hPa East 9.7 km/h 11.3 km/h 95 % 0 mm 0 W/m2
00:25 3.2 °C 2.5 °C 1028 hPa South 9.7 km/h 11.3 km/h 95 % 0 mm 0 W/m2
00:30 3.2 °C 2.4 °C 1028 hPa NE 9.7 km/h 11.3 km/h 95 % 0 mm 0 W/m2
00:35 3.2 °C 2.5 °C 1028 hPa SE 11.3 km/h 11.3 km/h 95 % 0 mm 0 W/m2
00:45 3.2 °C 2.4 °C 1028.3 hPa East 11.3 km/h 11.3 km/h 95 % 0 mm 0 W/m2
00:50 3.2 °C 2.4 °C 1028.3 hPa ESE 9.7 km/h 9.7 km/h 95 % 0 mm 0 W/m2
00:55 3.2 °C 2.4 °C 1028.3 hPa ENE 8 km/h 9.7 km/h 95 % 0 mm 0 W/m2
01:00 3.2 °C 2.4 °C 1028.3 hPa ENE 6.4 km/h 6.4 km/h 95 % 0 mm 0 W/m2
01:10 3.1 °C 2.4 °C 1028.7 hPa East 4.8 km/h 4.8 km/h 95 % 0 mm 0 W/m2
01:20 3.2 °C 2.4 °C 1028.7 hPa ENE 6.4 km/h 32.2 km/h 95 % 0 mm 0 W/m2
01:25 3.2 °C 2.4 °C 1028.7 hPa ENE 8 km/h 32.2 km/h 95 % 0 mm 0 W/m2
01:35 3.2 °C 2.4 °C 1028.7 hPa ENE 8 km/h 9.7 km/h 95 % 0 mm 0 W/m2
01:40 3.2 °C 2.6 °C 1028.7 hPa East 6.4 km/h 32.2 km/h 96 % 0 mm 0 W/m2
01:45 3.2 °C 2.4 °C 1028.3 hPa ENE 8 km/h 32.2 km/h 95 % 0 mm 0 W/m2
01:50 3.2 °C 2.4 °C 1028.3 hPa NE 9.7 km/h 32.2 km/h 95 % 0 mm 0 W/m2
01:55 3.2 °C 2.4 °C 1028.3 hPa NE 9.7 km/h 32.2 km/h 95 % 0 mm 0 W/m2
02:05 3.2 °C 2.7 °C 1028.3 hPa ENE 9.7 km/h 11.3 km/h 96 % 0 mm 0 W/m2
02:10 3.2 °C 2.7 °C 1028.3 hPa East 9.7 km/h 32.2 km/h 96 % 0 mm 0 W/m2
02:15 3.2 °C 2.7 °C 1028.3 hPa ENE 9.7 km/h 32.2 km/h 96 % 0 mm 0 W/m2
02:25 3.2 °C 2.7 °C 1028 hPa East 11.3 km/h 32.2 km/h 96 % 0 mm 0 W/m2
02:30 3.2 °C 2.7 °C 1028 hPa ENE 11.3 km/h 32.2 km/h 96 % 0 mm 0 W/m2
02:35 3.2 °C 2.7 °C 1028 hPa ESE 8 km/h 32.2 km/h 96 % 0 mm 0 W/m2
02:40 3.2 °C 2.7 °C 1028 hPa ENE 8 km/h 8 km/h 96 % 0 mm 0 W/m2
02:50 3.2 °C 2.6 °C 1027.7 hPa ENE 11.3 km/h 11.3 km/h 96 % 0 mm 0 W/m2
02:55 3.2 °C 2.6 °C 1027.7 hPa NE 11.3 km/h 32.2 km/h 96 % 0 mm 0 W/m2
03:00 3.2 °C 2.6 °C 1027.7 hPa ENE 9.7 km/h 32.2 km/h 96 % 0 mm 0 W/m2
03:10 3.2 °C 2.6 °C 1027.7 hPa ENE 9.7 km/h 9.7 km/h 96 % 0 mm 0 W/m2
03:20 3.1 °C 2.6 °C 1027.7 hPa ESE 6.4 km/h 32.2 km/h 96 % 0 mm 0 W/m2
03:25 3.1 °C 2.6 °C 1027.7 hPa East 8 km/h 32.2 km/h 96 % 0 mm 0 W/m2
03:30 3.1 °C 2.5 °C 1027.7 hPa East 11.3 km/h 32.2 km/h 96 % 0 mm 0 W/m2
03:35 3.1 °C 2.5 °C 1027.7 hPa East 11.3 km/h 32.2 km/h 96 % 0 mm 0 W/m2
03:40 3 °C 2.4 °C 1027.7 hPa NE 11.3 km/h 11.3 km/h 96 % 0 mm 0 W/m2
03:50 3 °C 2.4 °C 1027.7 hPa ESE 11.3 km/h 32.2 km/h 96 % 0 mm 0 W/m2
03:55 3 °C 2.4 °C 1027.7 hPa East 11.3 km/h 32.2 km/h 96 % 0 mm 0 W/m2
04:00 3 °C 2.4 °C 1027.7 hPa ESE 11.3 km/h 11.3 km/h 96 % 0 mm 0 W/m2
04:10 3 °C 2.4 °C 1027.7 hPa ESE 12.9 km/h 32.2 km/h 96 % 0 mm 0 W/m2
04:15 2.9 °C 2.4 °C 1027.7 hPa East 12.9 km/h 32.2 km/h 96 % 0 mm 0 W/m2
04:20 2.9 °C 2.4 °C 1027.3 hPa ENE 11.3 km/h 32.2 km/h 96 % 0 mm 0 W/m2
04:25 2.9 °C 2.4 °C 1027.7 hPa NE 9.7 km/h 32.2 km/h 96 % 0 mm 0 W/m2
04:35 2.9 °C 2.4 °C 1027.7 hPa ENE 4.8 km/h 32.2 km/h 96 % 0 mm 0 W/m2
04:40 2.9 °C 2.5 °C 1027.7 hPa ENE 6.4 km/h 32.2 km/h 97 % 0 mm 0 W/m2
04:45 2.9 °C 2.5 °C 1027.7 hPa NE 8 km/h 32.2 km/h 97 % 0 mm 0 W/m2
04:50 2.9 °C 2.4 °C 1027.7 hPa ESE 9.7 km/h 9.7 km/h 97 % 0 mm 0 W/m2
04:55 2.9 °C 2.4 °C 1027.7 hPa ENE 11.3 km/h 11.3 km/h 97 % 0 mm 0 W/m2
05:05 2.9 °C 2.4 °C 1027.7 hPa ENE 9.7 km/h 32.2 km/h 97 % 0 mm 0 W/m2
05:10 2.9 °C 2.4 °C 1027.7 hPa ENE 9.7 km/h 32.2 km/h 97 % 0 mm 0 W/m2
05:15 2.9 °C 2.4 °C 1027.7 hPa NE 9.7 km/h 32.2 km/h 97 % 0 mm 0 W/m2
05:20 2.9 °C 2.4 °C 1028 hPa NE 9.7 km/h 32.2 km/h 97 % 0 mm 0 W/m2
05:25 2.9 °C 2.4 °C 1027.7 hPa ENE 9.7 km/h 32.2 km/h 97 % 0 mm 0 W/m2
05:30 2.9 °C 2.4 °C 1027.7 hPa East 9.7 km/h 32.2 km/h 97 % 0 mm 0 W/m2
05:40 2.9 °C 2.4 °C 1027.7 hPa East 8 km/h 8 km/h 97 % 0 mm 0 W/m2
05:45 2.9 °C 2.4 °C 1027.7 hPa East 8 km/h 11.3 km/h 97 % 0 mm 0 W/m2
05:50 2.9 °C 2.4 °C 1027.7 hPa ENE 9.7 km/h 32.2 km/h 97 % 0 mm 0 W/m2
05:55 2.9 °C 2.5 °C 1027.7 hPa ENE 9.7 km/h 32.2 km/h 97 % 0 mm 0 W/m2
06:05 2.9 °C 2.5 °C 1027.7 hPa East 8 km/h 32.2 km/h 97 % 0 mm 0 W/m2
06:10 2.9 °C 2.5 °C 1027.7 hPa ENE 9.7 km/h 9.7 km/h 97 % 0 mm 0 W/m2
06:15 2.9 °C 2.5 °C 1027.7 hPa NE 8 km/h 11.3 km/h 97 % 0 mm 0 W/m2
06:20 3 °C 2.6 °C 1027.7 hPa NE 9.7 km/h 32.2 km/h 97 % 0 mm 0 W/m2
06:30 3 °C 2.6 °C 1027.7 hPa ENE 8 km/h 32.2 km/h 97 % 0 mm 0 W/m2
06:35 3.1 °C 2.6 °C 1027.7 hPa ENE 8 km/h 32.2 km/h 97 % 0 mm 0 W/m2
06:40 3.1 °C 2.6 °C 1027.7 hPa ENE 9.7 km/h 32.2 km/h 97 % 0 mm 0 W/m2
06:45 3.1 °C 2.6 °C 1028 hPa NE 11.3 km/h 32.2 km/h 97 % 0 mm 0 W/m2
06:55 3.1 °C 2.7 °C 1028 hPa East 8 km/h 32.2 km/h 97 % 0 mm 0 W/m2
07:00 3.1 °C 2.7 °C 1028 hPa ENE 6.4 km/h 32.2 km/h 97 % 0 mm 0 W/m2
07:10 3.1 °C 2.7 °C 1027.7 hPa ENE 8 km/h 8 km/h 97 % 0 mm 0 W/m2
07:15 3.1 °C 2.7 °C 1027.7 hPa East 9.7 km/h 11.3 km/h 97 % 0 mm 0 W/m2
07:20 3.2 °C 2.7 °C 1027.7 hPa ENE 9.7 km/h 9.7 km/h 97 % 0 mm 0 W/m2
07:30 3.2 °C 2.7 °C 1027.7 hPa SE 8 km/h 8 km/h 97 % 0 mm 0 W/m2
07:35 3.2 °C 2.8 °C 1027.7 hPa ESE 6.4 km/h 32.2 km/h 97 % 0 mm 0 W/m2
07:40 3.2 °C 2.8 °C 1027.7 hPa ENE 6.4 km/h 32.2 km/h 97 % 0 mm 0 W/m2
07:45 3.2 °C 2.8 °C 1027.7 hPa ENE 8 km/h 32.2 km/h 97 % 0 mm 0 W/m2
07:55 3.3 °C 2.8 °C 1027.7 hPa East 8 km/h 32.2 km/h 97 % 0 mm 5 W/m2
08:00 3.3 °C 2.8 °C 1027.7 hPa ENE 8 km/h 32.2 km/h 97 % 0 mm 7 W/m2
08:10 3.3 °C 2.9 °C 1028 hPa ENE 8 km/h 8 km/h 97 % 0 mm 9 W/m2
08:15 3.4 °C 2.9 °C 1028 hPa ENE 8 km/h 32.2 km/h 97 % 0 mm 12 W/m2
08:25 3.4 °C 2.9 °C 1028 hPa East 8 km/h 32.2 km/h 97 % 0 mm 14 W/m2
08:30 3.4 °C 2.9 °C 1028 hPa NE 6.4 km/h 32.2 km/h 97 % 0 mm 12 W/m2
08:35 3.4 °C 3 °C 1028 hPa NE 4.8 km/h 32.2 km/h 97 % 0 mm 14 W/m2
08:45 3.5 °C 3.1 °C 1028 hPa ESE 6.4 km/h 32.2 km/h 97 % 0 mm 25 W/m2
08:50 3.5 °C 3.1 °C 1028 hPa East 8 km/h 32.2 km/h 97 % 0 mm 19 W/m2
08:55 3.5 °C 3.1 °C 1027.7 hPa ENE 8 km/h 32.2 km/h 97 % 0 mm 18 W/m2
09:00 3.6 °C 3.1 °C 1028 hPa ENE 9.7 km/h 9.7 km/h 97 % 0 mm 25 W/m2
09:10 3.6 °C 3.2 °C 1028 hPa ENE 8 km/h 8 km/h 97 % 0 mm 28 W/m2
09:15 3.6 °C 3.2 °C 1028 hPa East 8 km/h 11.3 km/h 97 % 0 mm 33 W/m2
09:20 3.6 °C 3.2 °C 1028 hPa ENE 9.7 km/h 32.2 km/h 97 % 0 mm 23 W/m2
09:30 3.7 °C 3.2 °C 1028 hPa NE 9.7 km/h 9.7 km/h 97 % 0 mm 33 W/m2
09:35 3.7 °C 3.1 °C 1027.7 hPa ENE 9.7 km/h 32.2 km/h 96 % 0 mm 39 W/m2
09:40 3.7 °C 3.2 °C 1028 hPa NE 8 km/h 8 km/h 96 % 0 mm 54 W/m2
09:45 3.7 °C 3.2 °C 1028 hPa ENE 6.4 km/h 12.9 km/h 96 % 0 mm 46 W/m2
09:50 3.7 °C 3.2 °C 1028 hPa NE 8 km/h 32.2 km/h 96 % 0 mm 63 W/m2
10:00 3.8 °C 3.3 °C 1028 hPa NE 8 km/h 32.2 km/h 96 % 0 mm 47 W/m2
10:05 3.8 °C 3.3 °C 1028 hPa NE 8 km/h 32.2 km/h 96 % 0 mm 51 W/m2
10:10 3.9 °C 3.3 °C 1028 hPa ENE 8 km/h 32.2 km/h 96 % 0 mm 84 W/m2
10:20 4.1 °C 3.5 °C 1028 hPa ENE 8 km/h 32.2 km/h 96 % 0 mm 105 W/m2
10:25 4.1 °C 3.6 °C 1028 hPa ENE 6.4 km/h 32.2 km/h 96 % 0 mm 102 W/m2
10:30 4.2 °C 3.6 °C 1028 hPa NE 9.7 km/h 32.2 km/h 96 % 0 mm 139 W/m2
10:40 4.3 °C 3.6 °C 1028 hPa NE 11.3 km/h 11.3 km/h 95 % 0 mm 102 W/m2
10:45 4.4 °C 3.7 °C 1028 hPa East 9.7 km/h 16.1 km/h 95 % 0 mm 86 W/m2
10:50 4.4 °C 3.7 °C 1028 hPa ENE 11.3 km/h 32.2 km/h 95 % 0 mm 90 W/m2
10:55 4.4 °C 3.7 °C 1028 hPa NNE 11.3 km/h 32.2 km/h 95 % 0 mm 107 W/m2
11:05 4.6 °C 3.8 °C 1027.7 hPa ENE 9.7 km/h 32.2 km/h 95 % 0 mm 105 W/m2
11:10 4.6 °C 3.8 °C 1027.7 hPa East 9.7 km/h 32.2 km/h 95 % 0 mm 90 W/m2
11:15 4.6 °C 3.7 °C 1027.7 hPa East 11.3 km/h 32.2 km/h 94 % 0 mm 95 W/m2
11:20 4.7 °C 3.8 °C 1027.7 hPa NE 12.9 km/h 12.9 km/h 94 % 0 mm 107 W/m2
11:25 4.8 °C 3.9 °C 1027.7 hPa NE 11.3 km/h 14.5 km/h 94 % 0 mm 107 W/m2
11:35 4.8 °C 3.9 °C 1027.7 hPa NE 11.3 km/h 32.2 km/h 94 % 0 mm 84 W/m2
11:40 4.9 °C 4 °C 1027.3 hPa East 9.7 km/h 9.7 km/h 94 % 0 mm 116 W/m2
11:45 4.9 °C 4.1 °C 1027.3 hPa NE 11.3 km/h 16.1 km/h 94 % 0 mm 95 W/m2
11:55 5.1 °C 4.2 °C 1027.3 hPa East 11.3 km/h 32.2 km/h 94 % 0 mm 109 W/m2
12:00 5.1 °C 4.2 °C 1027.3 hPa ENE 9.7 km/h 32.2 km/h 94 % 0 mm 120 W/m2
12:05 5.2 °C 4.1 °C 1027 hPa ENE 11.3 km/h 32.2 km/h 93 % 0 mm 151 W/m2
12:20 5.3 °C 4.3 °C 1027 hPa East 11.3 km/h 32.2 km/h 93 % 0 mm 132 W/m2
12:25 5.4 °C 4.3 °C 1027 hPa NE 12.9 km/h 32.2 km/h 93 % 0 mm 142 W/m2
12:35 5.6 °C 4.4 °C 1027 hPa East 8 km/h 32.2 km/h 92 % 0 mm 91 W/m2
12:40 5.7 °C 4.5 °C 1027 hPa ENE 8 km/h 8 km/h 92 % 0 mm 102 W/m2
12:45 5.8 °C 4.6 °C 1027 hPa East 6.4 km/h 11.3 km/h 92 % 0 mm 100 W/m2
12:50 5.8 °C 4.4 °C 1027 hPa ENE 8 km/h 32.2 km/h 91 % 0 mm 121 W/m2
13:00 5.8 °C 4.3 °C 1027 hPa East 9.7 km/h 9.7 km/h 90 % 0 mm 176 W/m2
13:05 5.9 °C 4.4 °C 1027 hPa ENE 9.7 km/h 32.2 km/h 90 % 0 mm 158 W/m2
13:10 6.1 °C 4.4 °C 1026.6 hPa East 8 km/h 8 km/h 89 % 0 mm 162 W/m2
13:15 6.1 °C 4.4 °C 1026.6 hPa NNE 8 km/h 9.7 km/h 89 % 0 mm 153 W/m2
13:20 6.3 °C 4.6 °C 1026.6 hPa ENE 6.4 km/h 32.2 km/h 89 % 0 mm 139 W/m2
13:35 6.6 °C 4.8 °C 1026.6 hPa ENE 11.3 km/h 32.2 km/h 88 % 0 mm 171 W/m2
13:45 7 °C 5 °C 1026.3 hPa ENE 9.7 km/h 32.2 km/h 87 % 0 mm 348 W/m2
13:50 7.1 °C 5.1 °C 1026.3 hPa NE 9.7 km/h 32.2 km/h 87 % 0 mm 322 W/m2
13:55 7.2 °C 5.2 °C 1026.3 hPa East 8 km/h 32.2 km/h 87 % 0 mm 327 W/m2
14:05 7.2 °C 5.2 °C 1026.3 hPa ENE 9.7 km/h 32.2 km/h 87 % 0 mm 200 W/m2
14:10 7.2 °C 5.2 °C 1026.3 hPa East 9.7 km/h 32.2 km/h 87 % 0 mm 285 W/m2
14:15 7.2 °C 5.1 °C 1026.3 hPa ENE 9.7 km/h 32.2 km/h 86 % 0 mm 260 W/m2
14:25 7.2 °C 5.1 °C 1026 hPa NE 11.3 km/h 32.2 km/h 86 % 0 mm 258 W/m2
14:30 7.2 °C 5 °C 1026 hPa ENE 12.9 km/h 32.2 km/h 86 % 0 mm 236 W/m2
14:35 7.1 °C 4.9 °C 1026 hPa NE 14.5 km/h 32.2 km/h 86 % 0 mm 246 W/m2
14:45 6.9 °C 4.8 °C 1026 hPa NE 12.9 km/h 32.2 km/h 86 % 0 mm 216 W/m2
14:50 6.8 °C 4.7 °C 1026 hPa NE 14.5 km/h 14.5 km/h 86 % 0 mm 214 W/m2
14:55 6.8 °C 4.8 °C 1026 hPa East 12.9 km/h 32.2 km/h 87 % 0 mm 213 W/m2
15:05 6.8 °C 4.8 °C 1026 hPa ENE 11.3 km/h 12.9 km/h 87 % 0 mm 200 W/m2
15:15 6.6 °C 4.6 °C 1026 hPa NE 12.9 km/h 32.2 km/h 87 % 0 mm 100 W/m2
15:20 6.3 °C 4.3 °C 1026 hPa ENE 14.5 km/h 14.5 km/h 87 % 0 mm 105 W/m2
15:25 6.2 °C 4.4 °C 1025.6 hPa East 14.5 km/h 32.2 km/h 88 % 0 mm 65 W/m2
15:30 6.1 °C 4.2 °C 1025.6 hPa ENE 12.9 km/h 12.9 km/h 88 % 0 mm 76 W/m2
15:40 5.8 °C 4.1 °C 1025.6 hPa NE 12.9 km/h 12.9 km/h 89 % 0 mm 67 W/m2
15:45 5.7 °C 4 °C 1025.6 hPa ESE 12.9 km/h 32.2 km/h 89 % 0 mm 32 W/m2
15:50 5.6 °C 4.1 °C 1025.6 hPa NNE 12.9 km/h 12.9 km/h 90 % 0 mm 32 W/m2
15:55 5.4 °C 3.9 °C 1025.6 hPa NE 12.9 km/h 16.1 km/h 90 % 0 mm 25 W/m2
16:05 5.2 °C 3.7 °C 1025.6 hPa ENE 12.9 km/h 32.2 km/h 90 % 0 mm 21 W/m2
16:10 5.1 °C 3.6 °C 1025.6 hPa NNE 11.3 km/h 32.2 km/h 90 % 0 mm 14 W/m2
16:15 5 °C 3.7 °C 1025.6 hPa ENE 11.3 km/h 32.2 km/h 91 % 0 mm 14 W/m2
16:20 4.9 °C 3.6 °C 1025.6 hPa NE 9.7 km/h 32.2 km/h 91 % 0 mm 11 W/m2
16:35 4.7 °C 3.4 °C 1026 hPa ENE 9.7 km/h 32.2 km/h 91 % 0 mm 7 W/m2
16:40 4.7 °C 3.3 °C 1026 hPa NE 8 km/h 32.2 km/h 91 % 0 mm 5 W/m2
16:45 4.6 °C 3.3 °C 1026 hPa ENE 6.4 km/h 32.2 km/h 91 % 0 mm 5 W/m2
16:50 4.6 °C 3.2 °C 1026 hPa ENE 8 km/h 32.2 km/h 91 % 0 mm 5 W/m2
16:55 4.6 °C 3.4 °C 1025.6 hPa NE 8 km/h 32.2 km/h 92 % 0 mm 0 W/m2
17:05 4.4 °C 3.3 °C 1025.6 hPa East 8 km/h 32.2 km/h 92 % 0 mm 0 W/m2
17:10 4.4 °C 3.2 °C 1025.6 hPa ENE 9.7 km/h 32.2 km/h 92 % 0 mm 0 W/m2
17:15 4.4 °C 3.2 °C 1025.6 hPa ENE 9.7 km/h 32.2 km/h 92 % 0 mm 0 W/m2
17:25 4.3 °C 3.2 °C 1025.6 hPa NE 9.7 km/h 32.2 km/h 92 % 0 mm 0 W/m2
17:30 4.3 °C 3.1 °C 1025.6 hPa ENE 11.3 km/h 32.2 km/h 92 % 0 mm 0 W/m2
17:35 4.3 °C 3.1 °C 1025.6 hPa East 9.7 km/h 32.2 km/h 92 % 0 mm 0 W/m2
17:40 4.2 °C 3.1 °C 1025.6 hPa ENE 8 km/h 8 km/h 92 % 0 mm 0 W/m2
17:45 4.2 °C 3.1 °C 1025.6 hPa East 8 km/h 32.2 km/h 92 % 0 mm 0 W/m2
17:55 4.2 °C 3.1 °C 1026 hPa NE 6.4 km/h 11.3 km/h 92 % 0 mm 0 W/m2
18:00 4.2 °C 3 °C 1026 hPa East 6.4 km/h 32.2 km/h 92 % 0 mm 0 W/m2
18:05 4.1 °C 2.9 °C 1026 hPa East 8 km/h 32.2 km/h 92 % 0 mm 0 W/m2
18:15 4.1 °C 2.9 °C 1026 hPa ENE 4.8 km/h 32.2 km/h 92 % 0 mm 0 W/m2
18:20 4.1 °C 2.9 °C 1026 hPa NE 4.8 km/h 32.2 km/h 92 % 0 mm 0 W/m2
18:25 4.1 °C 2.9 °C 1026 hPa ESE 8 km/h 32.2 km/h 92 % 0 mm 0 W/m2
18:35 4 °C 2.8 °C 1026 hPa ENE 8 km/h 11.3 km/h 92 % 0 mm 0 W/m2
18:40 4 °C 2.8 °C 1026 hPa ENE 8 km/h 32.2 km/h 92 % 0 mm 0 W/m2
18:45 4 °C 2.8 °C 1026 hPa ENE 8 km/h 32.2 km/h 92 % 0 mm 0 W/m2
18:55 4.1 °C 2.9 °C 1026 hPa East 6.4 km/h 32.2 km/h 92 % 0 mm 0 W/m2
19:05 4 °C 2.8 °C 1026 hPa ESE 9.7 km/h 32.2 km/h 92 % 0 mm 0 W/m2
19:10 4 °C 2.8 °C 1026 hPa NE 8 km/h 8 km/h 92 % 0 mm 0 W/m2
19:15 4 °C 2.8 °C 1026 hPa ENE 9.7 km/h 9.7 km/h 92 % 0 mm 0 W/m2
19:20 4 °C 2.8 °C 1026 hPa East 8 km/h 8 km/h 92 % 0 mm 0 W/m2
19:30 4.1 °C 2.7 °C 1025.6 hPa SSE 6.4 km/h 32.2 km/h 91 % 0 mm 0 W/m2
19:35 4.1 °C 2.7 °C 1025.6 hPa ENE 8 km/h 32.2 km/h 91 % 0 mm 0 W/m2
19:40 4.1 °C 2.7 °C 1026 hPa East 8 km/h 32.2 km/h 91 % 0 mm 0 W/m2
19:50 4 °C 2.8 °C 1026 hPa East 9.7 km/h 32.2 km/h 92 % 0 mm 0 W/m2
19:55 4 °C 2.7 °C 1026 hPa ENE 8 km/h 32.2 km/h 91 % 0 mm 0 W/m2
20:00 4.1 °C 2.9 °C 1026 hPa East 8 km/h 8 km/h 92 % 0 mm 0 W/m2
20:10 4.1 °C 2.9 °C 1026 hPa East 6.4 km/h 6.4 km/h 92 % 0 mm 0 W/m2
20:15 4.1 °C 2.9 °C 1026 hPa ENE 6.4 km/h 9.7 km/h 92 % 0 mm 0 W/m2
20:25 4.1 °C 2.9 °C 1026 hPa NE 6.4 km/h 32.2 km/h 92 % 0 mm 0 W/m2
20:30 4.1 °C 2.9 °C 1026 hPa ESE 8 km/h 8 km/h 92 % 0 mm 0 W/m2
20:35 4.1 °C 2.9 °C 1026 hPa ESE 8 km/h 32.2 km/h 92 % 0 mm 0 W/m2
20:45 4.1 °C 2.9 °C 1026 hPa ENE 6.4 km/h 11.3 km/h 92 % 0 mm 0 W/m2
20:50 4.1 °C 2.7 °C 1026 hPa ENE 8 km/h 8 km/h 91 % 0 mm 0 W/m2
21:00 4.1 °C 2.7 °C 1026 hPa East 9.7 km/h 32.2 km/h 91 % 0 mm 0 W/m2
21:05 4.1 °C 2.7 °C 1026 hPa East 9.7 km/h 32.2 km/h 91 % 0 mm 0 W/m2
21:10 4.1 °C 2.7 °C 1026 hPa ESE 8 km/h 8 km/h 91 % 0 mm 0 W/m2
21:15 4.1 °C 2.7 °C 1026 hPa East 8 km/h 32.2 km/h 91 % 0 mm 0 W/m2
21:20 4.1 °C 2.7 °C 1026 hPa NE 8 km/h 8 km/h 91 % 0 mm 0 W/m2
21:30 4.1 °C 2.7 °C 1026 hPa ESE 8 km/h 8 km/h 91 % 0 mm 0 W/m2
21:35 4.1 °C 2.7 °C 1026 hPa ESE 8 km/h 12.9 km/h 91 % 0 mm 0 W/m2
21:40 4.1 °C 2.7 °C 1026 hPa East 8 km/h 8 km/h 91 % 0 mm 0 W/m2
21:50 4.1 °C 2.7 °C 1026 hPa ENE 4.8 km/h 32.2 km/h 91 % 0 mm 0 W/m2
21:55 4.1 °C 2.7 °C 1026 hPa SE 6.4 km/h 32.2 km/h 91 % 0 mm 0 W/m2
22:00 4.1 °C 2.7 °C 1026 hPa ENE 8 km/h 8 km/h 91 % 0 mm 0 W/m2
22:10 4.1 °C 2.7 °C 1025.6 hPa East 6.4 km/h 32.2 km/h 91 % 0 mm 0 W/m2
22:15 4.1 °C 2.7 °C 1025.6 hPa East 6.4 km/h 32.2 km/h 91 % 0 mm 0 W/m2
22:20 4.1 °C 2.7 °C 1025.6 hPa ENE 6.4 km/h 32.2 km/h 91 % 0 mm 0 W/m2
22:25 4.1 °C 2.7 °C 1025.6 hPa East 6.4 km/h 32.2 km/h 91 % 0 mm 0 W/m2
22:30 4 °C 2.7 °C 1025.6 hPa NE 8 km/h 32.2 km/h 91 % 0 mm 0 W/m2
22:40 3.9 °C 2.6 °C 1025.6 hPa ENE 8 km/h 32.2 km/h 91 % 0 mm 0 W/m2
22:45 3.9 °C 2.7 °C 1025.6 hPa ENE 8 km/h 32.2 km/h 92 % 0 mm 0 W/m2
22:50 3.9 °C 2.7 °C 1025.6 hPa ENE 9.7 km/h 32.2 km/h 92 % 0 mm 0 W/m2
22:55 3.8 °C 2.7 °C 1025.6 hPa NE 8 km/h 32.2 km/h 92 % 0 mm 0 W/m2
23:00 3.8 °C 2.6 °C 1025.6 hPa ENE 6.4 km/h 6.4 km/h 92 % 0 mm 0 W/m2
23:10 3.6 °C 2.4 °C 1025.6 hPa NE 6.4 km/h 32.2 km/h 92 % 0 mm 0 W/m2
23:15 3.6 °C 2.4 °C 1025.3 hPa East 4.8 km/h 32.2 km/h 92 % 0 mm 0 W/m2
23:25 3.4 °C 2.3 °C 1025.3 hPa NE 6.4 km/h 32.2 km/h 92 % 0 mm 0 W/m2
23:30 3.4 °C 2.2 °C 1025.3 hPa ENE 8 km/h 8 km/h 92 % 0 mm 0 W/m2
23:35 3.3 °C 2.3 °C 1025.3 hPa ENE 9.7 km/h 9.7 km/h 93 % 0 mm 0 W/m2
23:40 3.2 °C 2.2 °C 1025.3 hPa ENE 8 km/h 8 km/h 93 % 0 mm 0 W/m2
23:50 3.1 °C 2.1 °C 1025.3 hPa ENE 6.4 km/h 32.2 km/h 93 % 0 mm 0 W/m2
23:55 3 °C 2 °C 1025.3 hPa ENE 6.4 km/h 32.2 km/h 93 % 0 mm 0 W/m2
Delerius-Weather
Compliments of Weather Underground - 2 mb

Data updates at regular intervals.